Regional Weather Roundup
Issued by NWS

Home | Current Version | Previous Version | Graphics & Text | Print | Product List | Glossary Off
Versions: 1 2 3 4 5 6 7 8 9 10 11 12 13 14 15 16 17 18 19 20 21 22 23 24 25 26 27 28 29 30 31 32 33 34 35 36 37 38 39 40 41 42 43 44 45 46 47 48 49 50

000
ASUS43 KDTX 291610
RWRMI
MICHIGAN HOURLY REGIONAL WEATHER ROUNDUP
NATIONAL WEATHER SERVICE DETROIT/PONTIAC MI
1200 PM EDT SUN MAY 29 2016

NOTE: "FAIR" INDICATES FEW OR NO CLOUDS BELOW 12,000 FEET WITH NO
SIGNIFICANT WEATHER AND/OR OBSTRUCTION TO VISIBILITY.

MIZ047>049-052>055-059>063-066>070-074>076-081>083-291700-
SOUTHEAST LOWER MICHIGAN

CITY           SKY/WX    TMP DP  RH WIND       PRES   REMARKS
ADRIAN         MOSUNNY   82  63  52 SW10      30.05F
ALMA           MOSUNNY   78  62  57 S17G24    29.99S
ANN ARBOR      MOSUNNY   79  64  60 W12       30.04S
BAD AXE        PTSUNNY   80  63  56 S15       29.99S
CARO           CLOUDY    78  63  60 SW9       29.99S
DETROIT CITY   CLOUDY    79  65  62 SW14      30.03F
DETROIT        CLOUDY    79  66  64 SW14      30.04F
FLINT          PTSUNNY   83  62  49 SW12      30.01F
GROSSE ILE     CLOUDY    75  70  83 S7        30.03F
HILLSDALE      MOSUNNY   80  56  43 SW9G16    30.05S
HOWELL         SUNNY     80  63  56 S12       30.02F

CITY           SKY/WX    TMP DP  RH WIND       PRES   REMARKS
JACKSON        SUNNY     81  61  50 SW17G24   30.03F
LAMBERTVILLE   CLOUDY    80  66  62 W9        30.05F
LANSING        MOSUNNY   78  63  59 SW16      30.01F
LAPEER         FAIR      80  59  49 SW8       30.02S
MASON          MOSUNNY   80  62  54 SW8       30.01F
MONROE         CLOUDY    80  67  66 SW9       30.04F
MT. CLEMENS    PTSUNNY   79  67  64 SW12      30.02F
PONTIAC        CLOUDY    79  63  57 S8        30.02F
PORT HOPE        N/A     79  67  66 SW10G20   29.96F
PORT HURON     CLOUDY    75  68  78 S8        30.03S
TRI CITIES     MOSUNNY   81  63  54 SW15      29.98F
MIDLAND        PTSUNNY   79  64  59 SW9       29.96F
TROY           CLOUDY    79  66  65 SW13      30.05F
SAGINAW HB     MOSUNNY   79  61  53 SW14      29.98F
$$
MIZ043>046-050>051-056>058-064>065-071>073-077>080-291700-
SOUTHWEST LOWER MICHIGAN

CITY           SKY/WX    TMP DP  RH WIND       PRES   REMARKS
BATTLE CREEK   MOSUNNY   77  64  64 SW17      30.04S
BENTON HARBOR  SUNNY     79  58  48 SW14G24   30.02R
BIG RAPIDS     MOSUNNY   74  61  63 SW8       29.97S
COLDWATER      PTSUNNY   79  64  60 S8        30.04S
FREMONT        FAIR      76  61  58 S15G22    29.97F
HOLLAND        SUNNY     77  61  57 SW16      30.01S
GRAND RAPIDS   PTSUNNY   80  60  50 SW17      30.00S
IONIA          FAIR      79  59  50 SW15G24   29.99F
KALAMAZOO      PTSUNNY   80  63  55 S16       30.02F
LUDINGTON      PTSUNNY   70  60  70 S18G28    29.95R
MARSHALL       PTSUNNY   78  63  61 W15       30.03S
MOUNT PLEASANT MOSUNNY   78  62  58 SW13G22   29.97S
MUSKEGON       MOSUNNY   75  60  59 S16       29.99S
SOUTH HAVEN    SUNNY     78  57  49 SW14      30.01F
$$
MIZ016>042-291700-
NORTHERN LOWER MICHIGAN

CITY           SKY/WX    TMP DP  RH WIND       PRES   REMARKS
ALPENA         MOSUNNY   82  60  47 S10       29.91F
BEAVER ISLAND  SUNNY     73  62  69 SW13G22   29.90R
BELLAIRE       SUNNY     79  58  49 SW12G20   29.90F
CADILLAC       MOSUNNY   74  58  56 SW12G21   29.95F
CHARLEVOIX     SUNNY     76  61  60 S13G23    29.93S
FRANKFORT      PTSUNNY   70  62  74 SW17G24   29.91S
GAYLORD        MOSUNNY   78  58  49 SW20G28   29.93F
GRAYLING       MOSUNNY   79  61  54 S14G22    29.94F
HARBOR SPRINGS SUNNY     73  61  65 SW6       29.90S
HOUGHTON LAKE  PTSUNNY   74  61  63 SW12      29.96F
MANISTEE       PTSUNNY   75  59  57 S16       29.93S
OSCODA         MOSUNNY   81  66  61 S13       29.94S
PELLSTON       MOSUNNY   79  60  52 S14G21    29.90S
ROGERS CITY    MOSUNNY   80  60  50 S13G21    29.91S
TRAVERSE CITY  MOSUNNY   79  59  50 SW8G18    29.89S
$$
MIZ007>008-015-291700-
EASTERN UPPER MICHIGAN

CITY           SKY/WX    TMP DP  RH WIND       PRES   REMARKS
KINROSS          N/A     75  63  64 SW10G21   29.89S
MACKINAC ISLAN PTSUNNY   72  62  69 W14G22    29.89F
NEWBERRY       CLOUDY    66  63  90 S10       29.88S
S. S. MARIE    MOSUNNY   77  64  64 S14       29.87S
MUNISING         N/A     74  62  66 S12       29.80F
$$
MIZ004>006-011>014-085-291700-
CENTRAL UPPER MICHIGAN

CITY           SKY/WX    TMP DP  RH WIND       PRES   REMARKS
MANISTIQUE     FOG       54  53  97 S6        29.88S VSB 1/2
ESCANABA       PTSUNNY   63  55  77 SE7       29.83F
MENOMINEE      MOSUNNY   73  63  68 SW16G22   29.84S
SAWYER-GWINN   PTSUNNY   72  59  64 SW13G20   29.82F
$$
MIZ001>003-009>011-084-291700-
WESTERN UPPER MICHIGAN

CITY           SKY/WX    TMP DP  RH WIND       PRES   REMARKS
IRON MOUNTAIN  LGT RAIN  64  61  90 SW7       29.83R
HOUGHTON       PTSUNNY   65  58  78 W17       29.77F
COPPER HARBOR    N/A     52  49  89 VRB3      29.76F
IRONWOOD       CLOUDY    63  61  94 W10       29.80S
$$

ABBREVIATIONS USED IN REMARKS
   TC - TEMPERATURE IN CELSIUS
  WCI - WIND CHILL INDEX
   HX - HEAT INDEX
  VSB - VISIBILITY





USA.gov is the U.S. government's official web portal to all federal, state and local government web resources and services.